User: anonymous   Login
Location: Wayah Bald
(35.1806°N, 83.5603°W)
Time: 19:54:41
(UTC-04:00)
Language:

Meteor 1-27 Rocket - Orbit

View from above orbital plane
View from above orbital plane
View from above satellite
View from above satellite

Ground track
Ground track

The orbit data is extracted from the following two-line orbital elements,

1 09904U 77024B   15089.81382724  .00000282  00000-0  15989-3 0  9997
2 09904 081.2647 191.8822 0054914 087.7818 272.9638 14.06781232949008
Epoch (UTC): 30 March 2015 19:31:54
Eccentricity: 0.0054914
inclination: 81.2647°
perigee height: 830 km
apogee height: 910 km
right ascension of ascending node: 191.8822°
argument of perigee: 87.7818°
revolutions per day: 14.06781232
mean anomaly at epoch: 272.9638°
orbit number at epoch: 94900

The dashed part of the orbit path shows where the satellite is in the earth's shadow,  

DLR